STARLINK-1128 (44931 NORAD) Tracking and Keplerian Element Data

This shows tracking and keplerian element data for the satellite.

Feedback or suggestion? Click here.




ElementValue
Catalog44931
NameSTARLINK-1128
Epoch Orbit175
Epoch Day196.91667824
Epoch Year2020
RAAN251.2473
Inclination53.0012
Eccentricity0.0001111
Argument of Perigee117.6433
Mean Anonmoly130.9625
Mean Motion15.05564583
Decay Rate2.57E-06
L11 44931U 20001T 20196.91667824 .00000257 00000-0 36842-4 0 9996
L22 44931 53.0012 251.2473 0001111 117.6433 130.9625 15.05564583 1758

Live tracking and technical data element details for STARLINK-1128 (NORAD 44931). STARLINK-1128 can be tracked NOW for your location showing map with azimuth and elevation plus other details from your city location.

Track the satellite on the map from your city or location and see movement details for azimuth, elevation, latitude, longitude, range, height, and movement on the map or in text.







IsCatalogInMostPopularTable: catalog: 44931, numindb: 35
Update: records affected: 1



GetName: 44931 STARLINK-1128

Hit Count: updated at: Thu, 16 Jul 2020 03:09:10 GMT